Time,TemperatureF,DewpointF,PressureIn,WindDirection,WindDirectionDegrees,WindSpeedMPH,WindSpeedGustMPH,Humidity,HourlyPrecipIn,Conditions,Clouds,dailyrainin,SoftwareType,DateUTC
2013-05-30 00:02:00,60.0,53.0,-100.00,East,85,4.0,7.0,78,0.00,,,-99.99,,2013-05-30 05:02:00,
2013-05-30 00:12:00,60.0,53.0,-100.00,East,85,4.0,7.0,78,0.00,,,-99.99,,2013-05-30 05:12:00,
2013-05-30 00:22:00,60.0,53.0,-100.00,East,85,4.0,7.0,78,0.00,,,-99.99,,2013-05-30 05:22:00,
2013-05-30 00:32:00,60.0,53.0,-100.00,East,85,4.0,7.0,78,0.00,,,-99.99,,2013-05-30 05:32:00,
2013-05-30 01:01:00,58.0,53.0,-100.00,East,80,0.0,1.0,83,0.00,,,-99.99,,2013-05-30 06:01:00,
2013-05-30 01:12:00,58.0,53.0,-100.00,East,80,0.0,1.0,83,0.00,,,-99.99,,2013-05-30 06:12:00,
2013-05-30 01:22:00,58.0,53.0,-100.00,East,80,0.0,1.0,83,0.00,,,-99.99,,2013-05-30 06:22:00,
2013-05-30 01:32:00,58.0,53.0,-100.00,East,80,0.0,1.0,83,0.00,,,-99.99,,2013-05-30 06:32:00,
2013-05-30 01:41:00,60.0,55.0,-100.00,ESE,105,1.0,4.0,83,0.00,,,-99.99,,2013-05-30 06:41:00,
2013-05-30 01:42:00,58.0,53.0,-100.00,East,80,0.0,1.0,83,0.00,,,-99.99,,2013-05-30 06:42:00,
2013-05-30 02:01:00,60.0,55.0,-100.00,ESE,105,1.0,4.0,83,0.00,,,-99.99,,2013-05-30 07:01:00,
2013-05-30 02:12:00,60.0,55.0,-100.00,ESE,105,1.0,4.0,83,0.00,,,-99.99,,2013-05-30 07:12:00,
2013-05-30 02:22:00,60.0,55.0,-100.00,ESE,105,1.0,4.0,83,0.00,,,-99.99,,2013-05-30 07:22:00,
2013-05-30 02:31:00,60.0,55.0,-100.00,ESE,105,1.0,4.0,83,0.00,,,-99.99,,2013-05-30 07:31:00,
2013-05-30 02:41:00,63.0,57.0,-100.00,SSE,165,3.0,11.0,83,0.00,,,-99.99,,2013-05-30 07:41:00,
2013-05-30 03:02:00,63.0,57.0,-100.00,SSE,165,3.0,11.0,83,0.00,,,-99.99,,2013-05-30 08:02:00,
2013-05-30 03:11:00,63.0,57.0,-100.00,SSE,165,3.0,11.0,83,0.00,,,-99.99,,2013-05-30 08:11:00,
2013-05-30 03:21:00,63.0,57.0,-100.00,SSE,165,3.0,11.0,83,0.00,,,-99.99,,2013-05-30 08:21:00,
2013-05-30 03:32:00,63.0,57.0,-100.00,SSE,165,3.0,11.0,83,0.00,,,-99.99,,2013-05-30 08:32:00,
2013-05-30 03:42:00,62.0,58.0,-100.00,SSE,165,4.0,7.0,87,0.25,,,-99.99,,2013-05-30 08:42:00,
2013-05-30 04:01:00,62.0,58.0,-100.00,SSE,165,4.0,7.0,87,0.25,,,-99.99,,2013-05-30 09:01:00,
2013-05-30 04:11:00,62.0,58.0,-100.00,SSE,165,4.0,7.0,87,0.25,,,-99.99,,2013-05-30 09:11:00,
2013-05-30 04:21:00,62.0,58.0,-100.00,SSE,165,4.0,7.0,87,0.25,,,-99.99,,2013-05-30 09:21:00,
2013-05-30 04:33:00,62.0,58.0,-100.00,SSE,165,4.0,7.0,87,0.25,,,-99.99,,2013-05-30 09:33:00,
2013-05-30 04:42:00,62.0,58.0,-100.00,West,270,0.0,7.0,88,2.03,,,-99.99,,2013-05-30 09:42:00,
2013-05-30 05:03:00,62.0,58.0,-100.00,West,270,0.0,7.0,88,2.03,,,-99.99,,2013-05-30 10:03:00,
2013-05-30 05:13:00,62.0,58.0,-100.00,West,270,0.0,7.0,88,2.03,,,-99.99,,2013-05-30 10:13:00,
2013-05-30 05:23:00,62.0,58.0,-100.00,West,270,0.0,7.0,88,2.03,,,-99.99,,2013-05-30 10:23:00,
2013-05-30 05:32:00,62.0,58.0,-100.00,West,270,0.0,7.0,88,2.03,,,-99.99,,2013-05-30 10:32:00,
2013-05-30 06:03:00,61.0,58.0,-100.00,East,80,2.0,4.0,88,0.00,,,-99.99,,2013-05-30 11:03:00,
2013-05-30 06:12:00,61.0,58.0,-100.00,East,80,2.0,4.0,88,0.00,,,-99.99,,2013-05-30 11:12:00,
2013-05-30 06:22:00,61.0,58.0,-100.00,East,80,2.0,4.0,88,0.00,,,-99.99,,2013-05-30 11:22:00,
2013-05-30 06:32:00,61.0,58.0,-100.00,East,80,2.0,4.0,88,0.00,,,-99.99,,2013-05-30 11:32:00,
2013-05-30 06:40:00,62.0,58.0,-100.00,East,95,4.0,7.0,88,0.00,,,-99.99,,2013-05-30 11:40:00,
2013-05-30 06:42:00,61.0,58.0,-100.00,East,80,2.0,4.0,88,0.00,,,-99.99,,2013-05-30 11:42:00,
2013-05-30 07:01:00,62.0,58.0,-100.00,East,95,4.0,7.0,88,0.00,,,-99.99,,2013-05-30 12:01:00,
2013-05-30 07:11:00,62.0,58.0,-100.00,East,95,4.0,7.0,88,0.00,,,-99.99,,2013-05-30 12:11:00,
2013-05-30 07:22:00,62.0,58.0,-100.00,East,95,4.0,7.0,88,0.00,,,-99.99,,2013-05-30 12:22:00,
2013-05-30 07:32:00,62.0,58.0,-100.00,East,95,4.0,7.0,88,0.00,,,-99.99,,2013-05-30 12:32:00,
2013-05-30 07:42:00,62.0,58.0,-100.00,East,100,6.0,11.0,87,0.00,,,-99.99,,2013-05-30 12:42:00,
2013-05-30 08:01:00,62.0,58.0,-100.00,East,100,6.0,11.0,87,0.00,,,-99.99,,2013-05-30 13:01:00,
2013-05-30 08:11:00,62.0,58.0,-100.00,East,100,6.0,11.0,87,0.00,,,-99.99,,2013-05-30 13:11:00,
2013-05-30 08:22:00,62.0,58.0,-100.00,East,100,6.0,11.0,87,0.00,,,-99.99,,2013-05-30 13:22:00,
2013-05-30 08:32:00,62.0,58.0,-100.00,East,100,6.0,11.0,87,0.00,,,-99.99,,2013-05-30 13:32:00,
2013-05-30 08:41:00,63.0,58.0,-100.00,East,85,7.0,9.0,84,0.00,,,-99.99,,2013-05-30 13:41:00,
2013-05-30 09:01:00,63.0,58.0,-100.00,East,85,7.0,9.0,84,0.00,,,-99.99,,2013-05-30 14:01:00,
2013-05-30 09:11:00,63.0,58.0,-100.00,East,85,7.0,9.0,84,0.00,,,-99.99,,2013-05-30 14:11:00,
2013-05-30 09:22:00,63.0,58.0,-100.00,East,85,7.0,9.0,84,0.00,,,-99.99,,2013-05-30 14:22:00,
2013-05-30 09:32:00,63.0,58.0,-100.00,East,85,7.0,9.0,84,0.00,,,-99.99,,2013-05-30 14:32:00,
2013-05-30 09:42:00,67.0,60.0,-100.00,ESE,120,4.0,9.0,78,0.00,,,-99.99,,2013-05-30 14:42:00,
2013-05-30 10:01:00,67.0,60.0,-100.00,ESE,120,4.0,9.0,78,0.00,,,-99.99,,2013-05-30 15:01:00,
2013-05-30 10:11:00,67.0,60.0,-100.00,ESE,120,4.0,9.0,78,0.00,,,-99.99,,2013-05-30 15:11:00,
2013-05-30 10:22:00,67.0,60.0,-100.00,ESE,120,4.0,9.0,78,0.00,,,-99.99,,2013-05-30 15:22:00,
2013-05-30 10:33:00,67.0,60.0,-100.00,ESE,120,4.0,9.0,78,0.00,,,-99.99,,2013-05-30 15:33:00,
2013-05-30 11:03:00,74.0,58.0,-100.00,SSE,165,10.0,17.0,57,0.00,,,-99.99,,2013-05-30 16:03:00,
2013-05-30 11:12:00,74.0,58.0,-100.00,SSE,165,10.0,17.0,57,0.00,,,-99.99,,2013-05-30 16:12:00,
2013-05-30 11:23:00,74.0,58.0,-100.00,SSE,165,10.0,17.0,57,0.00,,,-99.99,,2013-05-30 16:23:00,
2013-05-30 11:33:00,74.0,58.0,-100.00,SSE,165,10.0,17.0,57,0.00,,,-99.99,,2013-05-30 16:33:00,
2013-05-30 12:02:00,76.0,55.0,-100.00,SSE,155,10.0,14.0,49,0.00,,,-99.99,,2013-05-30 17:02:00,
2013-05-30 12:12:00,76.0,55.0,-100.00,SSE,155,10.0,14.0,49,0.00,,,-99.99,,2013-05-30 17:12:00,
2013-05-30 12:22:00,76.0,55.0,-100.00,SSE,155,10.0,14.0,49,0.00,,,-99.99,,2013-05-30 17:22:00,
2013-05-30 12:32:00,76.0,55.0,-100.00,SSE,155,10.0,14.0,49,0.00,,,-99.99,,2013-05-30 17:32:00,
2013-05-30 13:02:00,79.0,55.0,-100.00,SSE,150,10.0,17.0,44,0.00,,,-99.99,,2013-05-30 18:02:00,
2013-05-30 13:11:00,79.0,55.0,-100.00,SSE,150,10.0,17.0,44,0.00,,,-99.99,,2013-05-30 18:11:00,
2013-05-30 13:22:00,79.0,55.0,-100.00,SSE,150,10.0,17.0,44,0.00,,,-99.99,,2013-05-30 18:22:00,
2013-05-30 13:32:00,79.0,55.0,-100.00,SSE,150,10.0,17.0,44,0.00,,,-99.99,,2013-05-30 18:32:00,
2013-05-30 14:01:00,77.0,55.0,-100.00,SSE,165,10.0,16.0,46,0.00,,,-99.99,,2013-05-30 19:01:00,
2013-05-30 14:12:00,77.0,55.0,-100.00,SSE,165,10.0,16.0,46,0.00,,,-99.99,,2013-05-30 19:12:00,
2013-05-30 14:23:00,77.0,55.0,-100.00,SSE,165,10.0,16.0,46,0.00,,,-99.99,,2013-05-30 19:23:00,
2013-05-30 14:32:00,77.0,55.0,-100.00,SSE,165,10.0,16.0,46,0.00,,,-99.99,,2013-05-30 19:32:00,
2013-05-30 15:01:00,76.0,53.0,-100.00,SE,145,11.0,22.0,45,0.00,,,-99.99,,2013-05-30 20:01:00,
2013-05-30 15:11:00,76.0,53.0,-100.00,SE,145,11.0,22.0,45,0.00,,,-99.99,,2013-05-30 20:11:00,
2013-05-30 15:22:00,76.0,53.0,-100.00,SE,145,11.0,22.0,45,0.00,,,-99.99,,2013-05-30 20:22:00,
2013-05-30 15:33:00,76.0,53.0,-100.00,SE,145,11.0,22.0,45,0.00,,,-99.99,,2013-05-30 20:33:00,
2013-05-30 16:01:00,72.0,57.0,-100.00,SSW,200,7.0,19.0,59,0.00,,,-99.99,,2013-05-30 21:01:00,
2013-05-30 16:11:00,72.0,57.0,-100.00,SSW,200,7.0,19.0,59,0.00,,,-99.99,,2013-05-30 21:11:00,
2013-05-30 16:22:00,72.0,57.0,-100.00,SSW,200,7.0,19.0,59,0.00,,,-99.99,,2013-05-30 21:22:00,
2013-05-30 16:33:00,72.0,57.0,-100.00,SSW,200,7.0,19.0,59,0.00,,,-99.99,,2013-05-30 21:33:00,
2013-05-30 17:02:00,73.0,59.0,-100.00,SSE,165,4.0,9.0,61,0.00,,,-99.99,,2013-05-30 22:02:00,
2013-05-30 17:12:00,73.0,59.0,-100.00,SSE,165,4.0,9.0,61,0.00,,,-99.99,,2013-05-30 22:12:00,
2013-05-30 17:23:00,73.0,59.0,-100.00,SSE,165,4.0,9.0,61,0.00,,,-99.99,,2013-05-30 22:23:00,
2013-05-30 17:33:00,73.0,59.0,-100.00,SSE,165,4.0,9.0,61,0.00,,,-99.99,,2013-05-30 22:33:00,
2013-05-30 17:52:00,75.0,55.0,-100.00,South,175,7.0,17.0,50,0.00,,,-99.99,,2013-05-30 22:52:00,
2013-05-30 18:02:00,75.0,55.0,-100.00,South,175,7.0,17.0,50,0.00,,,-99.99,,2013-05-30 23:02:00,
2013-05-30 18:11:00,75.0,55.0,-100.00,South,175,7.0,17.0,50,0.00,,,-99.99,,2013-05-30 23:11:00,
2013-05-30 18:22:00,75.0,55.0,-100.00,South,175,7.0,17.0,50,0.00,,,-99.99,,2013-05-30 23:22:00,
2013-05-30 18:32:00,75.0,55.0,-100.00,South,175,7.0,17.0,50,0.00,,,-99.99,,2013-05-30 23:32:00,
2013-05-30 18:52:00,72.0,57.0,-100.00,SSE,160,6.0,12.0,59,0.00,,,-99.99,,2013-05-30 23:52:00,
2013-05-30 19:01:00,72.0,57.0,-100.00,SSE,160,6.0,12.0,59,0.00,,,-99.99,,2013-05-31 00:01:00,
2013-05-30 19:11:00,72.0,57.0,-100.00,SSE,160,6.0,12.0,59,0.00,,,-99.99,,2013-05-31 00:11:00,
2013-05-30 19:22:00,72.0,57.0,-100.00,SSE,160,6.0,12.0,59,0.00,,,-99.99,,2013-05-31 00:22:00,
2013-05-30 19:32:00,72.0,57.0,-100.00,SSE,160,6.0,12.0,59,0.00,,,-99.99,,2013-05-31 00:32:00,
2013-05-30 20:01:00,71.0,56.0,-100.00,SSE,160,6.0,10.0,58,0.00,,,-99.99,,2013-05-31 01:01:00,
2013-05-30 20:12:00,71.0,56.0,-100.00,SSE,160,6.0,10.0,58,0.00,,,-99.99,,2013-05-31 01:12:00,
2013-05-30 20:21:00,71.0,56.0,-100.00,SSE,160,6.0,10.0,58,0.00,,,-99.99,,2013-05-31 01:21:00,
2013-05-30 20:32:00,71.0,56.0,-100.00,SSE,160,6.0,10.0,58,0.00,,,-99.99,,2013-05-31 01:32:00,
2013-05-30 21:02:00,70.0,57.0,-100.00,ESE,110,3.0,7.0,64,0.00,,,-99.99,,2013-05-31 02:02:00,
2013-05-30 21:11:00,70.0,57.0,-100.00,ESE,110,3.0,7.0,64,0.00,,,-99.99,,2013-05-31 02:11:00,
2013-05-30 21:22:00,70.0,57.0,-100.00,ESE,110,3.0,7.0,64,0.00,,,-99.99,,2013-05-31 02:22:00,
2013-05-30 21:32:00,70.0,57.0,-100.00,ESE,110,3.0,7.0,64,0.00,,,-99.99,,2013-05-31 02:32:00,
2013-05-30 22:01:00,67.0,60.0,-100.00,East,95,3.0,6.0,78,0.00,,,-99.99,,2013-05-31 03:01:00,
2013-05-30 22:11:00,67.0,60.0,-100.00,East,95,3.0,6.0,78,0.00,,,-99.99,,2013-05-31 03:11:00,
2013-05-30 22:21:00,67.0,60.0,-100.00,East,95,3.0,6.0,78,0.00,,,-99.99,,2013-05-31 03:21:00,
2013-05-30 22:33:00,67.0,60.0,-100.00,East,95,3.0,6.0,78,0.00,,,-99.99,,2013-05-31 03:33:00,
2013-05-30 23:02:00,64.0,59.0,-100.00,SE,145,2.0,4.0,84,0.00,,,-99.99,,2013-05-31 04:02:00,
2013-05-30 23:12:00,64.0,59.0,-100.00,SE,145,2.0,4.0,84,0.00,,,-99.99,,2013-05-31 04:12:00,
2013-05-30 23:22:00,64.0,59.0,-100.00,SE,145,2.0,4.0,84,0.00,,,-99.99,,2013-05-31 04:22:00,
2013-05-30 23:33:00,64.0,59.0,-100.00,SE,145,2.0,4.0,84,0.00,,,-99.99,,2013-05-31 04:33:00,